Tracking 23610 objects as of 21-Sep-2021
HD Live streaming from Space Station
objects crossing your sky now

STARLINK-1732

Track STARLINK-1732 now!
10-day predictions
STARLINK-1732 is classified as:


NORAD ID: 46584
Int'l Code: 2020-070BE
Perigee: 553.9 km
Apogee: 554.8 km
Inclination: 53.1 °
Period: 95.6 minutes
Semi major axis: 6925 km
RCS: Unknown
Launch date: October 6, 2020
Source: United States (US)
Launch site: AIR FORCE EASTERN TEST RANGE (AFETR)
aabbcc
Your satellite tracking list
Your tracking list is empty




NASA's NSSDC Master Catalog

Two Line Element Set (TLE):
1 46584U 20070BE  21263.73486520  .00000928  00000-0  81184-4 0  9990
2 46584  53.0533 278.2583 0000695  50.9427 309.1624 15.06405358 53651
Source of the keplerian elements: AFSPC